Location: Byhalia Creek
(34.8270°N, 89.8040°W)
Time: 04:44:45
(UTC+00:00)

Daily predictions for brighter satellites

Satellite Brightness Start Highest point End
(mag) Time Altitude Azimuth Time Altitude Azimuth Time Altitude Azimuth
Cosmos 2237 Rocket 2.2 00:53:57 10° SSW 00:59:35 73° ESE 01:05:17 10° NNE
SAR-Lupe-1 4.4 00:56:42 10° S 01:00:14 71° W 01:03:47 10° NNW
Cosmos 1400 Rocket 4.1 00:58:03 10° SE 01:00:23 17° E 01:02:44 10° NE
Cosmos 1980 3.7 00:55:51 10° SSW 01:01:29 83° ESE 01:07:09 10° NNE
Helios 1A Rocket 4.0 00:59:56 10° ENE 01:01:44 14° E 01:03:31 10° SE
Meteor 2-19 Rocket 4.4 00:58:36 10° N 01:04:45 77° E 01:10:50 10° S
Cosmos 44 4.3 01:01:12 10° SSE 01:05:13 26° ESE 01:09:25 10° NE
CARTOSAT-1 4.4 01:02:26 10° S 01:06:31 52° W 01:10:38 10° NNW
RESURS DK-1 2.2 01:05:12 10° SSW 01:09:06 72° ESE 01:13:02 10° NNE
CSL-04 Rocket 4.5 01:04:18 10° SE 01:09:13 33° ENE 01:14:06 10° N
Meteor 1-31 Rocket 4.2 01:08:40 10° ESE 01:11:04 18° ENE 01:13:29 10° NNE
SL-4 R/B 3.6 01:09:42 10° SSE 01:11:27 13° SE 01:13:14 10° E
Cosmos 494 Rocket 4.1 01:06:30 10° NNW 01:11:44 84° WSW 01:16:56 10° SSE
Cosmos 2112 Rocket 4.2 01:08:51 10° NNW 01:14:01 76° WSW 01:19:09 10° S
SPOT 5 3.3 01:11:29 10° SE 01:15:40 36° ENE 01:19:42 10° N
SL-8 Rocket 4.0 01:13:49 10° S 01:20:02 76° E 01:26:20 10° N
Milstar 3 4.5 01:18:45 10° S 01:23:50 19° SE 01:29:08 12° ESE
Timation 2 Rocket 4.3 01:19:39 10° NNW 01:26:00 56° ENE 01:32:32 10° SE
Cosmos 1943 Rocket 2.2 01:22:00 10° NNW 01:27:41 85° ENE 01:33:17 10° SSE
Terra 3.3 01:27:26 14° ESE 01:29:42 19° ENE 01:33:00 10° NNE
Cosmos 2341 Rocket 4.0 01:24:07 10° S 01:30:21 88° E 01:36:42 10° N
NOSS 3 (A) 4.3 01:33:37 10° S 01:35:09 31° SSE 01:35:09 31° SSE
Cosmos 2366 rocket 4.0 01:31:00 10° S 01:37:10 87° W 01:43:20 10° N
Meteor 2-14 Rocket 4.5 01:34:11 10° N 01:40:14 62° E 01:46:18 10° SSE
CZ-4B R/B 4.1 01:43:20 19° ESE 01:46:24 32° ENE 01:51:21 10° N
Cosmos 1733 Rocket 3.0 01:42:13 10° S 01:46:34 87° E 01:50:58 10° N
Resurs 01 Rocket 3.8 01:43:44 10° SSW 01:47:21 25° W 01:50:59 10° NW
Cosmos 2242 Rocket 3.7 01:44:37 10° N 01:48:58 53° E 01:51:49 20° SSE
Cosmos 1048 Rocket 4.1 01:45:50 10° NNW 01:51:00 77° WSW 01:56:09 10° S
Cosmos 2278 Rocket 2.3 01:45:21 10° NNW 01:51:01 77° WSW 01:56:27 11° SSE
Cosmos 1025 Rocket 4.2 01:48:29 10° NNE 01:51:53 23° ENE 01:52:19 22° E
CZ-4 R/B 1.1 01:54:18 25° SSE 01:56:22 68° ENE 02:00:04 10° N
USA 32 4.1 01:53:44 10° S 01:58:57 83° W 02:04:12 10° N
CSL-04 Debris 4.1 01:59:27 12° SSE 02:04:27 84° WSW 02:09:51 10° NNW
OAO 3 Rocket 3.0 02:01:39 10° W 02:06:18 89° S 02:08:13 36° E
Aureole 3 4.2 02:02:33 10° N 02:08:02 80° E 02:13:05 17° S
CZ-4B R/B 3.9 02:06:03 21° S 02:08:21 66° W 02:12:08 10° NNW
SL-08 R/B 3.4 02:06:43 10° NNE 02:11:34 58° E 02:14:33 22° S
Cosmos 2239 Rocket 4.4 02:06:08 10° S 02:12:14 70° E 02:18:26 10° NNE
Cosmos 1821 Rocket 4.3 02:06:45 10° SSW 02:12:57 69° W 02:19:17 10° N
Cosmos 614 Rocket 3.8 02:09:13 10° NNW 02:14:22 88° ENE 02:16:51 31° SSE
Meteor 2-8 Rocket 4.3 02:08:44 10° S 02:14:46 72° E 02:20:48 10° N
SL-16 R/B 2.1 02:09:26 10° SSW 02:15:04 83° ESE 02:20:46 10° NNE
MetOp-B 4.1 02:13:57 33° SE 02:16:14 62° ENE 02:21:32 10° N
ERS-1 Rocket 2.8 02:15:33 34° SSE 02:17:44 74° ENE 02:22:44 10° N
Cosmos 2292 Rocket 4.1 02:14:58 10° N 02:17:46 32° NE 02:17:46 32° NE
Cosmos 2298 Rocket 3.9 02:15:00 10° S 02:20:13 68° ESE 02:25:30 10° NNE
TIMED 4.3 02:19:16 10° NNW 02:23:32 87° E 02:24:21 57° SSE
OAO 3 Copernicus 4.2 02:20:10 10° W 02:25:11 82° S 02:26:20 53° ESE
OAO 2 Rocket 3.2 02:22:05 10° W 02:27:15 87° N 02:28:40 49° E
USA 234 3.9 02:22:54 10° NE 02:29:16 57° NW 02:35:38 10° WSW
PAYLOAD B 4.2 02:27:34 30° S 02:30:25 79° WSW 02:35:55 10° NNW
USA 59 Rocket 0.0 02:27:42 10° NNW 02:31:35 83° ENE 02:32:14 65° SE
Cosmos 2221 Rocket 4.1 02:27:57 10° N 02:31:36 42° ENE 02:31:36 42° ENE
YAOGAN 11 4.0 02:29:29 10° NNE 02:33:32 66° ENE 02:33:32 66° ENE
Cosmos 1000 Rocket 4.3 02:31:03 10° N 02:37:12 75° E 02:39:10 45° SSE
Cosmos 1346 Rocket 3.1 02:35:18 10° N 02:38:04 51° N 02:38:04 51° N
Meteor 2-16 Rocket 4.3 02:35:02 10° N 02:41:11 87° E 02:43:19 43° S
Spot 2 Rocket 3.5 02:42:41 58° ENE 02:42:42 58° ENE 02:47:37 10° N
Cosmos 1656 Rocket 3.5 02:37:26 10° NNW 02:42:56 82° ENE 02:43:52 63° SE
Geosat 4.3 02:39:21 10° NNE 02:44:18 65° WNW 02:49:13 10° SW
SL-4 R/B 3.0 02:44:38 10° WSW 02:47:05 37° WSW 02:47:05 37° WSW
Cosmos 2285 Rocket 4.2 02:42:19 10° SSW 02:48:40 71° WNW 02:55:01 10° NNE
Okean-O 3.1 02:53:58 52° NNE 02:53:58 52° NNE 02:57:24 10° N
BREEZE-M DEB (TANK) 4.2 02:50:56 10° NW 02:54:32 42° NW 02:54:32 42° NW
Cosmos 1674 Rocket 4.4 02:53:59 10° NNW 02:58:07 45° W 02:58:33 43° WSW
Cosmos 1908 Rocket 4.4 02:59:29 43° WSW 03:00:05 46° W 03:04:15 10° N
Okean O Rocket 2.2 03:03:31 53° NNW 03:03:31 53° NNW 03:06:50 10° NNW
Gbstr 26 Del rocket 3.7 02:58:42 10° WSW 03:04:07 62° NW 03:04:53 54° N
Terra 3.0 03:06:03 33° WSW 03:06:56 36° W 03:11:15 10° NNW
SL-08 R/B 4.4 03:02:31 10° N 03:08:47 86° W 03:09:30 72° S
Cosmos 2297 4.1 03:06:40 10° NNW 03:11:35 52° NE 03:11:35 52° NE
Cosmos 2369 Rocket 2.4 03:12:28 10° NNW 03:17:11 61° NNE 03:17:11 61° NNE
SPOT 3 Rocket 4.3 03:22:48 44° NNE 03:22:48 44° NNE 03:26:26 10° N
ASTEX 1 4.5 03:26:48 39° W 03:26:48 39° W 03:31:16 10° NNW
Cosmos 1943 3.5 03:27:21 65° NW 03:27:21 65° NW 03:32:37 10° NNE
NOSS 3-1 (C) 4.2 03:21:32 10° NNW 03:29:02 63° ENE 03:29:48 61° E
Milstar 3 4.3 03:57:42 10° WSW 04:20:09 18° E 04:24:09 10° E
NOSS 3-1 (A) 4.4 04:20:38 10° NNW 04:27:02 61° NNE 04:27:02 61° NNE
COSMOS 2455 4.3 04:26:59 10° NNW 04:30:05 32° NNW 04:30:05 32° NNW
ATLAS 2AS CENTAUR R/B 4.2 05:31:52 29° NNE 05:31:52 29° NNE 05:35:04 10° NNE
ACS3 Solar Sail 3.7 06:26:57 10° NNE 06:29:12 22° NE 06:29:12 22° NE
ATLAS 3B R/B 3.9 06:46:19 10° NNW 06:50:58 39° NNW 06:50:58 39° NNW
Cosmos 2360 Rocket 4.5 07:38:54 10° N 07:42:57 20° ENE 07:47:00 10° ESE
Cosmos 2082 Rocket 4.3 07:46:37 19° NNW 07:46:37 19° NNW 07:48:55 10° N
Cosmos 2333 Rocket 3.6 07:40:11 10° N 07:44:45 34° NE 07:44:45 34° NE
ADEOS Rocket 3.7 07:42:06 10° NNE 07:49:37 66° E 07:49:37 66° E
Resurs 1-4 Rocket 3.7 07:52:43 10° NE 07:56:27 28° E 07:56:27 28° E
USA 281 3.4 07:58:48 65° NNE 07:58:48 65° NNE 08:04:40 10° NNW
Cosmos 2322 Rocket 3.9 07:53:49 10° N 07:58:39 28° ENE 08:01:23 20° ESE
H-2A R/B 3.8 08:05:33 10° NE 08:09:49 25° E 08:09:58 25° E
SL-16 R/B 3.2 08:08:24 10° NNW 08:11:55 39° N 08:11:55 39° N
ACS3 Solar Sail 3.4 08:09:49 10° NNW 08:12:45 22° NW 08:12:45 22° NW
Cosmos 2266 Rocket 4.0 08:31:53 10° N 08:37:12 67° NW 08:37:12 67° NW
Iridium 4 Rocket 4.2 08:41:06 44° N 08:41:06 44° N 08:44:28 10° N
Meteor 2-4 Rocket 4.2 08:40:30 48° ESE 08:41:09 51° E 08:46:19 10° NNE
IDEFIX/ARIANE 42P 4.4 08:37:56 10° NNW 08:40:08 19° NW 08:40:08 19° NW
USA 267 3.6 08:36:11 10° NNE 08:42:27 50° NW 08:43:24 47° WNW
Envisat 3.3 08:37:41 10° NNE 08:41:55 62° N 08:41:55 62° N
Meteor 2-20 Rocket 4.3 08:45:21 79° S 08:45:45 90° SE 08:51:48 10° N
ALOS 2.6 08:47:55 10° NNE 08:51:38 59° NNE 08:51:38 59° NNE
Meteor 1-27 Rocket 3.6 08:53:08 77° SW 08:53:33 84° W 08:59:30 10° N
Cosmos 1655 Rocket 4.2 08:48:27 10° N 08:54:39 69° E 08:58:04 28° SSE
Cosmos 990 Rocket 3.9 08:49:45 10° NNW 08:54:53 80° ENE 08:55:11 77° ESE
ADEOS II 2.1 08:53:49 10° NNE 08:59:03 76° ESE 08:59:43 65° SSE
Cosmos 841 Rocket 3.9 08:58:30 50° SE 08:59:22 57° ESE 09:04:25 10° NNE
ATLAS 5 CENTAUR R/B 2.9 09:05:36 57° SSW 09:06:44 79° ESE 09:20:16 10° NE
CZ-2D R/B 2.1 09:04:08 10° N 09:09:19 61° WNW 09:09:35 60° W
H-2A R/B 3.7 09:11:16 10° NE 09:14:41 28° E 09:16:49 18° SE
DELTA 2 R/B (1) 3.5 09:15:52 59° SSW 09:16:47 72° SSE 09:22:18 10° ENE
SL-16 R/B 4.1 09:11:37 10° SE 09:17:13 36° ENE 09:22:51 10° N
Cosmos 1354 Rocket 3.9 09:13:40 10° NNW 09:18:50 58° WSW 09:18:58 58° WSW
SL-4 R/B 3.1 09:19:25 12° NNW 09:22:44 40° NE 09:26:16 10° ESE
SL-14 R/B 4.2 09:23:07 28° SSE 09:24:41 45° E 09:28:25 10° NNE
Cosmos 2360 Rocket 2.2 09:21:43 10° NNW 09:27:13 52° WSW 09:29:01 38° SSW
Meteor 1-18 Rocket 4.3 09:24:32 25° S 09:27:54 75° E 09:33:26 10° NNE
Cosmos 1766 Rocket 3.4 09:24:42 10° NNW 09:28:59 67° W 09:29:26 62° SW
Cosmos 2333 Rocket 3.8 09:24:42 10° NW 09:26:40 19° WNW 09:26:40 19° WNW
Meteor 2-10 Rocket 4.1 09:26:57 10° N 09:32:03 59° E 09:37:21 10° SSE
Resurs 1-4 Rocket 3.0 09:32:26 10° N 09:36:57 29° WNW 09:37:30 29° W
CRYOSAT 2 4.2 09:34:39 31° S 09:36:57 70° W 09:41:50 10° N
CZ-2C R/B 4.1 09:33:16 10° NE 09:37:27 30° E 09:41:32 10° SSE
CZ-3 Stage 3 3.7 09:33:58 30° WSW 09:38:25 72° S 10:05:39 10° ESE
ISS -1.9 09:41:04 21° NW 09:41:17 21° NNW 09:43:55 10° NNE
Cosmos 1553 Rocket 3.9 09:38:05 24° SSW 09:41:58 72° W 09:48:14 10° N
Cosmos 2322 Rocket 2.7 09:37:37 10° NW 09:42:38 34° WSW 09:43:00 34° WSW
SL-08 RB Rocket 4.4 09:39:42 10° NNE 09:44:01 52° E 09:48:22 10° S
H-2A R/B 2.9 09:44:26 10° N 09:49:02 33° WNW 09:50:28 28° W
JB-3 4.4 09:50:02 43° W 09:50:03 43° W 09:53:30 10° NNW
Cosmos 1461 4.3 09:51:56 19° WNW 09:52:07 19° NW 09:54:54 10° N
DNEPR-1 R/B 4.4 09:49:55 10° NNW 09:55:47 78° WSW 10:02:56 10° SSE
Cosmos 2219 Rocket 2.3 09:50:51 10° NNW 09:56:16 49° WSW 10:01:40 10° S
H-2A R/B 4.5 10:01:10 11° NW 10:01:10 11° NW 10:01:19 10° NW
ARGOS 3.2 09:58:46 10° N 10:04:03 57° WNW 10:08:16 16° SSW
Cosmos 2227 Rocket 4.2 10:00:20 10° SSE 10:05:00 27° ESE 10:09:41 10° NE
SL-24 R/B 4.0 10:02:57 10° NNE 10:06:53 68° E 10:10:30 10° S
Cosmos 2084 Rocket 3.8 10:03:51 10° NW 10:07:46 37° WSW 10:11:42 10° S
EXPRESS MD2 3.5 10:08:07 23° S 10:09:12 36° SE 10:12:10 10° ENE
Cosmos 1151 Rocket 2.9 10:07:41 12° SSW 10:11:27 66° W 10:15:39 10° N
Cosmos 372 Rocket 4.3 10:08:09 10° NNW 10:12:59 42° WSW 10:17:44 10° S
Gbstr 26 Del rocket 2.5 10:10:00 10° NW 10:13:42 86° SW 10:17:40 10° SE
Cosmos 2315 Rocket 4.3 10:09:15 10° S 10:15:33 73° E 10:21:54 10° N
Cosmos 2322 3.8 10:11:52 10° NNW 10:17:36 84° ENE 10:23:16 10° SSE
USA 276 4.2 10:17:21 10° N 10:18:06 12° NE 10:18:52 10° ENE
Cosmos 1745 Rocket 4.0 10:12:48 10° N 10:18:59 87° E 10:25:06 10° S
Cosmos 1500 Rocket 3.5 10:18:00 10° N 10:22:25 90° N 10:26:51 10° S
Cosmos 1758 3.0 10:21:58 10° NNW 10:25:32 59° W 10:29:04 10° S
USA 307 2.4 10:27:45 14° SSW 10:29:33 48° SE 10:32:42 10° NE
Sich 1 3.7 10:28:13 10° NNW 10:31:53 31° W 10:35:32 10° SSW
PAYLOAD A 3.7 10:28:00 10° N 10:32:42 82° WNW 10:37:22 10° SSW
TSX-5 4.4 10:33:07 10° N 10:36:06 46° ENE 10:39:12 10° SE
Okean 3 Rocket 4.3 10:32:19 10° NNW 10:36:15 31° W 10:40:12 10° SSW
ADEOS II 4.0 10:36:07 10° NW 10:37:52 12° WNW 10:39:38 10° W
Cosmos 2297 Rocket 2.4 10:35:45 10° SW 10:41:13 52° WNW 10:46:44 10° N
Cosmos 858 Rocket 4.4 10:37:22 10° NNW 10:42:30 66° WSW 10:47:34 10° S
Cosmos 1743 Rocket 3.5 10:39:14 10° N 10:43:37 83° W 10:47:56 10° S
Cosmos 1805 Rocket 3.8 10:39:52 10° NNW 10:44:03 45° W 10:48:10 10° SSW
NOSS 0 Rocket 4.0 10:40:15 10° NNW 10:46:27 88° WSW 10:52:35 10° SSE
H-2A R/B 3.5 10:47:04 10° NNW 10:49:43 17° WNW 10:52:21 10° WSW
Cosmos 1340 Rocket 2.6 10:50:32 10° N 10:54:17 79° W 10:58:03 10° S
Cosmos 2263 Rocket 3.3 10:50:57 10° S 10:56:18 47° ESE 11:01:40 10° NE
Cosmos 158 Rocket 4.4 10:51:42 10° SW 10:56:43 48° WNW 11:01:52 10° N
COSMOS 2428 2.9 10:51:16 10° NNW 10:56:45 49° WSW 11:02:11 10° S
USA 234 3.4 10:51:31 10° SSE 10:57:52 55° SW 11:04:16 10° NW
CZ-3 R/B 3.0 10:51:24 10° W 11:10:46 53° SSW 11:16:57 10° SE
